Weather History for Akron, CO

Change the Weather History Date:

Monday, September 29, 2014

  Actual Average Record
Temperature  
Mean Temperature 62 °F 57 °F  
Max Temperature 75 °F 71 °F 90 °F (1994)
Min Temperature 48 °F 43 °F 20 °F (1985)
Degree Days  
Heating Degree Days 3    
Month to date heating degree days 95  
Cooling Degree Days 0    
Month to date cooling degree days 80  
Growing Degree Days 12 (Base 50)    
Moisture  
Dew Point 53 °F    
Average Humidity 75    
Maximum Humidity 100    
Minimum Humidity 50    
Precipitation  
Precipitation 1.11 in 0.03 in 1.11 in (2014)
Month to date precipitation 1.94 1.12  
Year to date precipitation 17.54 14.61  
Sea Level Pressure  
Sea Level Pressure 29.84 in    
Wind  
Wind Speed 12 mph (WSW)    
Max Wind Speed 33 mph    
Max Gust Speed 44 mph    
Visibility 8 miles    
Events Rain , Thunderstorm    
T = Trace of Precipitation, MM = Missing Value Source: NWS Daily Summary

Daily Weather History Graph

Daily Weather History Graph

Search for Another Location

Airport:

Trip Planner

Search our weather history database for the weather conditions in past years. The results will help you decide how hot, cold, wet, or windy it might be!

Date:

Astronomy

Sep. 29, 2014 Rise Set
Actual Time 6:47 AM MDT 6:38 PM MDT
Civil Twilight 6:20 AM MDT 7:05 PM MDT
Nautical Twilight 5:48 AM MDT 7:36 PM MDT
Astronomical Twilight 5:16 AM MDT 8:08 PM MDT
Moon 12:01 PM MDT (9/29) 10:14 PM MDT (9/29)
Length of Visible Light 12h 45m
Length of Day
11h 51m
Waxing Crescent, 28% of the Moon is Illuminated
Sep 29
Waxing Crescent
Oct 1
First Quarter
Oct 8
Full
Oct 15
Last Quarter
Oct 23
New

Hourly Weather History & Observations

Time (MDT) Temp. Dew Point Humidity Pressure Visibility Wind Dir Wind Speed Gust Speed Precip Events Conditions
12:53 AM 61.0 °F 50.0 °F 67% 29.88 in 10.0 mi SE 11.5 mph - N/A   Mostly Cloudy
1:53 AM 57.0 °F 51.1 °F 81% 29.88 in 10.0 mi ESE 9.2 mph - N/A   Partly Cloudy
2:53 AM 55.9 °F 51.1 °F 84% 29.87 in 10.0 mi SE 12.7 mph - N/A   Partly Cloudy
3:53 AM 57.0 °F 51.1 °F 81% 29.86 in 10.0 mi SSE 8.1 mph - N/A   Mostly Cloudy
4:16 AM 57.9 °F 52.0 °F 81% 30.01 in 10.0 mi SSE 9.2 mph - N/A Thunderstorm Mostly Cloudy
4:31 AM 57.9 °F 52.0 °F 81% 30.01 in 10.0 mi SSE 9.2 mph - N/A   Mostly Cloudy
4:53 AM 57.9 °F 52.0 °F 81% 29.86 in 10.0 mi SW 13.8 mph - N/A Thunderstorm Mostly Cloudy
5:36 AM 53.1 °F 53.1 °F 100% 30.01 in 10.0 mi SW 9.2 mph - 0.01 in   Scattered Clouds
5:53 AM 53.1 °F 52.0 °F 96% 29.88 in 10.0 mi SW 10.4 mph - 0.01 in   Clear
6:23 AM 52.0 °F 51.1 °F 97% 30.02 in 9.0 mi SW 11.5 mph - N/A   Scattered Clouds
6:31 AM 52.0 °F 52.0 °F 100% 30.01 in 6.0 mi SW 11.5 mph - N/A   Mostly Cloudy
6:53 AM 52.0 °F 52.0 °F 100% 29.90 in 5.0 mi SW 10.4 mph - N/A   Overcast
7:53 AM 54.0 °F 53.1 °F 97% 29.91 in 7.0 mi SW 11.5 mph - N/A   Overcast
8:46 AM 55.0 °F 54.0 °F 96% 30.02 in 8.0 mi SW 9.2 mph - N/A   Overcast
8:53 AM 55.9 °F 54.0 °F 93% 29.91 in 8.0 mi SW 9.2 mph - N/A   Overcast
9:27 AM 55.9 °F 54.0 °F 93% 29.99 in 10.0 mi WNW 5.8 mph - N/A   Overcast
9:53 AM 57.0 °F 55.0 °F 93% 29.91 in 8.0 mi South 5.8 mph - 0.00 in   Overcast
10:01 AM 57.0 °F 55.0 °F 93% 30.03 in 9.0 mi SSW 8.1 mph - N/A   Overcast
10:28 AM 57.0 °F 54.0 °F 89% 30.02 in 9.0 mi SW 10.4 mph - N/A   Overcast
10:53 AM 57.0 °F 55.0 °F 93% 29.90 in 9.0 mi SW 6.9 mph - N/A   Overcast
11:53 AM 59.0 °F 55.0 °F 87% 29.89 in 9.0 mi Calm Calm - N/A   Overcast
12:37 PM 62.1 °F 55.9 °F 80% 29.98 in 10.0 mi Variable 5.8 mph - N/A   Overcast
12:53 PM 64.0 °F 55.9 °F 75% 29.84 in 10.0 mi South 8.1 mph - N/A   Overcast
1:53 PM 70.0 °F 55.9 °F 61% 29.79 in 10.0 mi South 8.1 mph - N/A   Mostly Cloudy
2:53 PM 75.0 °F 55.9 °F 51% 29.70 in 10.0 mi SSE 10.4 mph - N/A   Mostly Cloudy
3:53 PM 64.0 °F 59.0 °F 84% 29.69 in 10.0 mi ESE 18.4 mph 27.6 mph 0.04 in   Mostly Cloudy
4:53 PM 61.0 °F 55.9 °F 83% 29.63 in 10.0 mi ENE 10.4 mph - N/A   Mostly Cloudy
5:12 PM 60.1 °F 57.0 °F 90% 29.72 in 8.0 mi ENE 9.2 mph - 0.03 in Rain , Thunderstorm Light Rain
5:31 PM 61.0 °F 57.9 °F 90% 29.79 in 5.0 mi West 19.6 mph 31.1 mph 0.09 in Rain , Thunderstorm Light Thunderstorms and Rain
5:49 PM 55.4 °F 55.4 °F 100% 29.78 in 8.0 mi West 11.5 mph - 0.15 in Rain , Thunderstorm Light Thunderstorms and Rain
5:53 PM 55.9 °F 55.0 °F 97% 29.69 in 6.0 mi West 8.1 mph - 0.15 in Rain , Thunderstorm Light Thunderstorms and Rain
6:29 PM 55.9 °F 55.0 °F 97% 29.76 in 7.0 mi NW 19.6 mph 24.2 mph 0.09 in Rain , Thunderstorm Light Rain
6:36 PM 55.0 °F 53.1 °F 93% 29.75 in 4.0 mi NNW 19.6 mph - 0.12 in Rain , Thunderstorm Rain
6:44 PM 54.0 °F 54.0 °F 100% 29.75 in 6.0 mi NW 17.3 mph - 0.13 in Rain , Thunderstorm Rain
6:53 PM 55.0 °F 54.0 °F 96% 29.68 in 10.0 mi WNW 18.4 mph - 0.13 in Rain , Thunderstorm Light Thunderstorms and Rain
7:08 PM 54.0 °F 54.0 °F 100% 29.80 in 2.5 mi West 17.3 mph 25.3 mph 0.09 in Rain Heavy Rain
7:17 PM 54.0 °F 54.0 °F 100% 29.80 in 4.0 mi West 23.0 mph 28.8 mph 0.11 in Rain Rain
7:31 PM 55.0 °F 55.0 °F 100% 29.79 in 7.0 mi West 16.1 mph - 0.13 in Rain Light Rain
7:48 PM 55.4 °F 53.6 °F 94% 29.77 in 10.0 mi NW 17.3 mph - 0.13 in   Overcast
7:53 PM 54.0 °F 54.0 °F 100% 29.68 in 10.0 mi NW 18.4 mph 25.3 mph 0.13 in Rain Light Rain
8:53 PM 54.0 °F 53.1 °F 97% 29.68 in 10.0 mi North 11.5 mph - 0.02 in Rain Light Rain
9:38 PM 54.0 °F 53.1 °F 97% 29.81 in 10.0 mi WSW 4.6 mph - 0.00 in   Overcast
9:53 PM 55.0 °F 53.1 °F 93% 29.71 in 7.0 mi South 4.6 mph - 0.01 in Rain Light Rain
10:22 PM 53.1 °F 51.1 °F 93% 29.78 in 10.0 mi North 8.1 mph - 0.06 in Rain Light Rain
10:37 PM 53.1 °F 52.0 °F 96% 29.77 in 10.0 mi North 9.2 mph - 0.06 in Thunderstorm Thunderstorm
10:53 PM 53.1 °F 52.0 °F 96% 29.72 in 3.0 mi West 16.1 mph 29.9 mph 0.15 in Rain , Thunderstorm Light Thunderstorms and Rain
10:55 PM 52.0 °F 51.1 °F 97% 29.80 in 1.8 mi WNW 26.5 mph 35.7 mph 0.07 in Rain , Thunderstorm Heavy Thunderstorms and Rain
10:57 PM 50.0 °F 50.0 °F 100% 29.80 in 1.0 mi WNW 33.4 mph 43.7 mph 0.11 in Rain , Thunderstorm Heavy Thunderstorms and Rain
10:59 PM 48.9 °F 48.0 °F 97% 29.81 in 0.8 mi WNW 29.9 mph 43.7 mph 0.16 in Rain , Thunderstorm Heavy Thunderstorms and Rain
11:08 PM 48.0 °F 46.9 °F 96% 29.82 in 2.0 mi West 27.6 mph 40.3 mph 0.22 in Rain , Thunderstorm Thunderstorms and Rain
11:17 PM 48.0 °F 46.9 °F 96% 29.83 in 2.5 mi WNW 25.3 mph 34.5 mph 0.28 in Rain , Thunderstorm Heavy Thunderstorms and Rain
11:24 PM 48.0 °F 46.9 °F 96% 29.83 in 5.0 mi WNW 21.9 mph 33.4 mph 0.30 in Rain , Thunderstorm Thunderstorms and Rain
11:53 PM 48.0 °F 46.9 °F 96% 29.75 in 4.0 mi West 23.0 mph 31.1 mph 0.39 in Rain , Thunderstorm Heavy Thunderstorms and Rain